Regional Weather Roundup
Issued by NWS

Home | Current Version | Previous Version | Graphics & Text | Print | Product List | Glossary On
Versions: 1 2 3 4 5 6 7 8 9 10 11 12 13 14 15 16 17 18 19 20 21 22 23 24 25 26 27 28 29 30 31 32 33 34 35 36 37 38 39 40 41 42 43 44 45 46 47 48 49 50
000
ASUS43 KLOT 251803
RWRIL

ILLINOIS REGIONAL WEATHER ROUNDUP
NATIONAL WEATHER SERVICE CHICAGO/ROMEOVILLE IL
100 PM CDT MON JUL 25 2016

NOTE: "FAIR" INDICATES FEW OR NO CLOUDS BELOW 12,000 FEET WITH NO
SIGNIFICANT WEATHER AND/OR OBSTRUCTIONS TO VISIBILITY.

* THESE STATIONS ARE NOT UNDER NWS QUALITY CONTROL. THEY ALSO MAY NOT
  REPORT WEATHER SUCH AS PRECIPITATION OR FOG.

ILZ001-002-007-009-015-016-024-251900-
NORTHWEST ILLINOIS

CITY           SKY/WX    TMP DP  RH WIND       PRES   REMARKS
MOLINE         MOSUNNY   86  64  47 CALM      30.04R HX  87
6HR MIN TEMP:  73; 6HR MAX TEMP:  86;

STERLING*      SUNNY     85  66  53 NW8       30.04R HX  87
SAVANNA*       SUNNY     83  66  55 NW8       30.03S HX  86
$$

ILZ003-004-008-010-011-017-018-251900-
NORTH CENTRAL ILLINOIS

CITY           SKY/WX    TMP DP  RH WIND       PRES   REMARKS
ROCKFORD       MOSUNNY   83  63  50 N10       30.03S HX  84
6HR MIN TEMP:  75; 6HR MAX TEMP:  85;

FREEPORT*      SUNNY     82  65  57 NW9       30.05S HX  84
ROCHELLE*      SUNNY     82  65  57 N3        30.04S HX  83
$$

ILZ005-006-012>014-019>023-251900-
NORTHEAST ILLINOIS

CITY           SKY/WX    TMP DP  RH WIND       PRES   REMARKS
CHICAGO-OHARE  MOSUNNY   85  61  44 NW8       30.00S HX  85
6HR MIN TEMP:  74; 6HR MAX TEMP:  86;

CHICAGO-MIDWAY PTSUNNY   85  64  49 SE9       30.01R HX  86
6HR MIN TEMP:  76; 6HR MAX TEMP:  86;

AURORA         MOSUNNY   84  68  58 NW7       30.04R HX  87
6HR MIN TEMP:  71; 6HR MAX TEMP:  84;

LANSING*       CLOUDY    82  63  51 E6        30.03R HX  83
WAUKEGAN       SUNNY     85  64  49 NW6       29.99S HX  86
6HR MIN TEMP:  74; 6HR MAX TEMP:  85;

DUPAGE AIRPORT SUNNY     85  62  46 W10       30.02R HX  85
6HR MIN TEMP:  74; 6HR MAX TEMP:  85;

KANKAKEE*      PTSUNNY   84  71  65 SW6       30.04S HX  89
WHEELING       SUNNY     86  60  41 NW10      30.01S HX  86
6HR MIN TEMP:  74; 6HR MAX TEMP:  86;

MORRIS*        CLOUDY    82  67  60 CALM      30.02S HX  85
NORTHERLY ISL    N/A     78  66  66 E2          N/A  HX  80
$$

LMZ740>746-251900-
SOUTHERN LAKE MICHIGAN

STATION/POSITION SKY/WX   TEMP    WIND        PRES    VSBY  WAVE
                          AIR SEA DIR/SP/G                  HT/PER
                          (F)     (DEG/KT/KT) (MB)    (MI)  (FT/S)
SOUTHERN BUOY              72 72  330/  8/ 10 1014.9          2/ 4
WILMETTE HARBOR            73 66  160/  2/  4   N/A           0
HARRISON CRIB              77      30/ 10/ 11   N/A
BURNHAM HARBOR             78      CALM  /  4   N/A
CALUMET HARBOR             77      10/  6/  9 1015.8R
BURNS HARBOR               74      20/  4/  6 1016.9R
MICHIGAN CITY              76     350/  6/  7   N/A
MICHIGAN CITY 6N           75 74   10/  2/  4   N/A           1/ 3
ST. JOSEPH                 73 74  330/  6/  8 1015.6F         2/ 4
$$

ILZ025>027-034>036-040-047-049-050-058-095>099-251900-
WEST-CENTRAL ILLINOIS

CITY           SKY/WX    TMP DP  RH WIND       PRES   REMARKS
QUINCY         CLOUDY    82  69  64 N6        30.06S HX  85
GALESBURG*     PTSUNNY   83  68  60 CALM      30.06S HX  86
MACOMB*        CLOUDY    81  70  68 NE5       30.08S HX  85
JACKSONVILLE*  CLOUDY    79  73  80 W3        30.04F HX  83
PITTSFIELD*    CLOUDY    81  74  80 NW7       30.05F HX  86
$$

ILZ028>032-037-038-041>044-048-051>054-059>061-251900-
CENTRAL ILLINOIS

CITY           SKY/WX    TMP DP  RH WIND       PRES   REMARKS
PONTIAC        PTSUNNY   83  73  71 CALM      30.05F HX  88
BLOOMINGTON    CLOUDY    80  73  79 N9        30.05F HAZE    HX  84
DECATUR        CLOUDY    82  71  69 W5        30.05S HX  86
PEORIA         CLOUDY    84  72  67 CALM      30.04F HX  89
6HR MIN TEMP:  75; 6HR MAX TEMP:  84;

LACON*         PTSUNNY   82  67  60 CALM      30.03F HX  84
LINCOLN*       PTSUNNY   83  74  73 CALM      30.03F HX  89
SPRINGFIELD    CLOUDY    84  72  67 W6        30.04F HX  89
6HR MIN TEMP:  73; 6HR MAX TEMP:  84;

TAYLORVILLE    CLOUDY    81  73  76 MISG      30.04F HX  86
6HR MIN TEMP:  72; 6HR MAX TEMP:  82;

$$

ILZ033-039-045-046-055>057-062-063-251900-
EAST-CENTRAL ILLINOIS

CITY           SKY/WX    TMP DP  RH WIND       PRES   REMARKS
CHAMPAIGN      CLOUDY    81  73  76 W6        30.05S HX  86
MATTOON        MOSUNNY   85  73  67 N10       30.03F HX  91
PARIS*         CLOUDY    82  75  79 CALM      30.05S HX  89
$$

ILZ079-100>102-251900-
SOUTHWEST ILLINOIS

CITY           SKY/WX    TMP DP  RH WIND       PRES   REMARKS
ALTON          CLOUDY    77  73  88 CALM      30.04F
BELLEVILLE     CLOUDY    81  80  94 VRB6      30.01F HX  91
CAHOKIA*       CLOUDY    83  74  74 N7        30.02F HX  89
SPARTA*        CLOUDY    82  77  85 NW9       30.02F HX  90
$$

ILZ064>066-069>071-074>076-080>082-084>086-088>090-092>094-251900-
SOUTH-CENTRAL ILLINOIS

CITY           SKY/WX    TMP DP  RH WIND       PRES   REMARKS
CARBONDALE     PTSUNNY   90  75  61 W7        29.99F HX 100
6HR MIN TEMP:  78; 6HR MAX TEMP:  90;

EFFINGHAM*     CLOUDY    86  75  69 CALM      30.04F HX  95
MARION         CLOUDY    91  77  62 SW8       30.00F HX 105
MT. VERNON     CLOUDY    91  75  59 CALM      29.98F HX 102
CENTRALIA*     PTSUNNY   87  78  76 N6        30.00F HX  99
SALEM*         CLOUDY    86  75  71 CALM      30.01F HX  94
METROPOLIS*    MOSUNNY   90  76  63 SW6       30.01F HX 100
$$

ILZ067-068-072-073-078-083-087-091-251900-
SOUTHEAST ILLINOIS

CITY           SKY/WX    TMP DP  RH WIND       PRES   REMARKS
LAWRENCEVILLE  MOSUNNY   87  75  67 VRB3      30.01F HX  96
FLORA*         MOSUNNY   88  78  71 N6        30.02F HX 101
FAIRFIELD*     CLOUDY    87  77  71 SW3       29.99F HX  99
HARRISBURG*    PTSUNNY   83  74  74 CALM      30.00F HX  89
ROBINSON*      CLOUDY    85  73  67 NW5       30.03F HX  91
CARMI*         CLOUDY    87  80  79 SW6       29.99F HX 102
$$

ABBREVIATIONS USED IN REMARKS
   TC - TEMPERATURE IN CELSIUS
  WCI - WIND CHILL INDEX
   HX - HEAT INDEX
  VSB - VISIBILITY
$$





USA.gov is the U.S. government's official web portal to all federal, state and local government web resources and services.